This is the latest recevied weather packets stored in our database for station/object SV9TNF-1. If no packets are shown the sender has not sent any weather packets the latest 10 day(s).
| Time | Temp. | Humidity | Pressure | Rain* | Wind** | Luminosity | Snow |
|---|---|---|---|---|---|---|---|
| 1777821847 | 13.89° C | 63% | 1004.7 hPa | 0 mm | 0.89 m/s, 134° | - | - |
| 1777821547 | 14.44° C | 61% | 1004.7 hPa | 0 mm | 0.89 m/s, 52° | - | - |
| 1777821247 | 13.89° C | 60% | 1004.7 hPa | 0 mm | 1.79 m/s, 139° | - | - |
| 1777820947 | 13.89° C | 61% | 1004.7 hPa | 0 mm | 1.79 m/s, 136° | - | - |
| 1777820647 | 14.44° C | 60% | 1004.7 hPa | 0 mm | 0 m/s | - | - |
| 1777820347 | 13.89° C | 57% | 1004.7 hPa | 0 mm | 4.47 m/s, 346° | - | - |
| 1777820047 | 14.44° C | 59% | 1004.7 hPa | 0 mm | 8.94 m/s, 320° | - | - |
| 1777819747 | 14.44° C | 58% | 1004.7 hPa | 0 mm | 4.92 m/s, 332° | - | - |
| 1777819446 | 14.44° C | 58% | 1004.7 hPa | 0 mm | 4.02 m/s, 126° | - | - |
| 1777819146 | 14.44° C | 55% | 1004.7 hPa | 0 mm | 4.92 m/s, 344° | - | - |
| 1777818847 | 14.44° C | 58% | 1004.7 hPa | 0 mm | 1.34 m/s, 125° | - | - |
| 1777818546 | 14.44° C | 56% | 1004.7 hPa | 0 mm | 3.58 m/s, 331° | - | - |
| 1777818246 | 15° C | 56% | 1004.7 hPa | 0 mm | 3.58 m/s, 78° | - | - |
| 1777817946 | 15° C | 57% | 1004.7 hPa | 0 mm | 1.34 m/s, 124° | - | - |
| 1777817646 | 15° C | 57% | 1004.7 hPa | 0 mm | 1.79 m/s, 320° | - | - |
| 1777817346 | 15.56° C | 57% | 1004.1 hPa | 0 mm | 4.92 m/s, 124° | - | - |
| 1777817046 | 15.56° C | 55% | 1004.1 hPa | 0 mm | 1.34 m/s, 166° | - | - |
| 1777816746 | 16.11° C | 52% | 1004.1 hPa | 0 mm | 7.15 m/s, 119° | - | - |
| 1777816445 | 16.67° C | 54% | 1004.1 hPa | 0 mm | 1.79 m/s, 127° | - | - |
| 1777816145 | 16.67° C | 53% | 1004.1 hPa | 0 mm | 1.34 m/s, 128° | - | - |
| 1777815846 | 16.67° C | 51% | 1004.1 hPa | 0 mm | 2.68 m/s, 113° | - | - |
| 1777815545 | 17.22° C | 51% | 1004.1 hPa | 0 mm | 3.58 m/s, 139° | - | - |
| 1777815245 | 17.78° C | 48% | 1004.1 hPa | 0 mm | 4.47 m/s, 127° | - | - |
| 1777814945 | 17.78° C | 48% | 1004.1 hPa | 0 mm | 6.26 m/s, 107° | - | - |
| 1777814645 | 18.33° C | 47% | 1004.1 hPa | 0 mm | 4.02 m/s, 136° | - | - |
* Rain latest hour (hover to see other rain measurements)
** Current wind speed in m/s (hover to see current wind gust speed)